[[{"header":{"parameterUnit":"m.s-1","parameterCategory":1,"la1":30.2992,"la2":30.254,"lo1":-89.0895,"lo2":-89.0443,"dy":0.0025,"dx":0.0025,"nx":19,"ny":19,"refTime":"2026-05-12T09:00:00:Z","depth":0,"parameterNumber":2,"parameterNumberName":"U-component_of_WINDS"},"data":[0,0,0,1.2965,1.2967,1.3091,1.3092,1.323,1.3231,0,0,0,0,0,0,0,0,0,0,0,1.2912,1.2912,1.2965,1.2967,1.3091,1.3092,1.3229,1.3231,0,0,0,0,0,0,0,0,0,0,0,1.2912,1.2912,1.2912,1.2968,1.3091,1.3092,1.3229,1.3144,0,0,0,0,0,0,0,0,0,0,1.3027,1.2961,1.2912,1.2912,1.2968,1.3091,1.3092,1.314,1.3149,1.3163,0,1.3168,0,1.3201,1.3238,1.3239,0,0,0,1.298,1.2954,1.3002,1.2912,1.2969,1.3091,1.3039,1.3145,1.3156,1.3175,1.317,1.3176,1.3203,1.3239,1.3239,1.3269,1.3269,0,0,1.2973,1.2926,1.2994,1.3007,1.2983,1.3035,1.3043,1.3152,1.3145,1.3171,1.318,1.3206,1.324,1.324,1.327,1.3269,0,0,0,1.2945,1.292,1.2967,1.3001,1.3025,1.3038,1.3047,1.314,1.3159,1.3182,1.3207,1.324,1.3242,1.327,1.327,1.3198,0,0,0,1.2941,1.2904,1.2963,1.2935,1.3022,1.3083,1.3032,1.3151,1.3165,1.3207,1.324,1.3243,1.3271,1.327,1.3201,1.3172,0,0,0,1.2909,1.2901,1.2912,1.2932,1.2983,1.3083,1.3108,1.3156,1.318,1.3239,1.3243,1.3271,1.327,1.3204,1.3176,1.3165,0,0,0,1.2862,1.2848,1.291,1.2906,1.2982,1.3036,1.3108,1.3152,1.3193,1.3241,1.3271,1.327,1.3205,1.3179,1.3167,1.3145,1.3131,0,0,1.2818,1.2841,1.2843,1.2902,1.2932,1.3022,1.3044,1.3128,1.318,1.3238,1.3239,1.32,1.3177,1.3165,1.3074,1.3062,0,0,0,1.2813,1.2813,1.2832,1.2867,1.293,1.2982,1.3068,1.31,1.3151,1.3198,1.3195,1.3183,1.3178,1.3169,1.316,1.3159,1.3264,1.3264,1.3264,1.2682,1.2746,1.2753,1.2832,1.2866,1.2955,1.299,1.3049,1.3105,1.3104,1.312,1.3057,1.3045,1.3038,1.3036,1.3115,1.3115,1.3115,1.3115,1.2623,1.2632,1.2708,1.274,1.281,1.284,1.2927,1.2966,1.3005,1.3049,1.3048,1.3088,1.3023,1.3025,1.311,1.3111,1.3111,1.3112,1.3112,1.2542,1.2558,1.2596,1.2655,1.2694,1.2778,1.2812,1.2875,1.2936,1.2935,1.296,1.2961,1.2969,1.2942,1.2942,1.2942,1.2942,1.2942,1.2942,1.2442,1.2488,1.2507,1.2573,1.2605,1.2656,1.2747,1.2782,1.2837,1.288,1.2881,1.2937,1.3005,1.3019,1.2938,1.2939,1.2939,1.294,1.294,1.2355,1.2385,1.2414,1.2446,1.253,1.2566,1.2647,1.2712,1.2751,1.2766,1.2824,1.2864,1.2892,1.2901,1.2913,1.281,1.281,1.281,1.281,1.2286,1.2307,1.2351,1.2398,1.2452,1.2528,1.2562,1.2635,1.2715,1.2743,1.2769,1.2791,1.2797,1.2823,1.2833,1.2845,1.2727,1.2727,1.2727,1.2235,1.2265,1.2279,1.2355,1.2426,1.2487,1.2521,1.2575,1.2673,1.2724,1.2767,1.2771,1.2808,1.2817,1.2866,1.288,1.2904,0,0]},{"header":{"parameterUnit":"m.s-1","parameterCategory":1,"la1":30.2992,"la2":30.254,"lo1":-89.0895,"lo2":-89.0443,"dy":0.0025,"dx":0.0025,"nx":19,"ny":19,"refTime":"2026-05-12T09:00:00:Z","depth":0,"parameterNumber":3,"parameterNumberName":"V-component_of_WINDS"},"data":[0,0,0,0.0665,0.0666,0.0724,0.0724,0.0811,0.0812,0,0,0,0,0,0,0,0,0,0,0,0.0656,0.0657,0.0664,0.0666,0.0724,0.0724,0.0811,0.0812,0,0,0,0,0,0,0,0,0,0,0,0.0655,0.0657,0.0658,0.0666,0.0724,0.0724,0.081,0.0762,0,0,0,0,0,0,0,0,0,0,0.0703,0.0704,0.0656,0.0658,0.0667,0.0724,0.0724,0.076,0.0765,0.079,0,0.0815,0,0.0815,0.0818,0.0819,0,0,0,0.066,0.07,0.0707,0.0658,0.0667,0.0724,0.0696,0.0762,0.0769,0.0797,0.0816,0.0819,0.0816,0.0819,0.0819,0.0982,0.0983,0,0,0.0657,0.0671,0.0703,0.0712,0.0705,0.0694,0.0698,0.0766,0.0787,0.0817,0.0821,0.0818,0.082,0.082,0.0981,0.0983,0,0,0,0.0652,0.0669,0.0675,0.0709,0.0718,0.0696,0.07,0.0784,0.0785,0.0822,0.0819,0.082,0.0821,0.098,0.0982,0.1045,0,0,0,0.0649,0.0666,0.0674,0.0683,0.0717,0.0752,0.0718,0.078,0.0788,0.0818,0.082,0.0822,0.0979,0.0981,0.1041,0.1072,0,0,0,0.0649,0.0666,0.0677,0.0684,0.0709,0.0751,0.0755,0.0782,0.0786,0.0819,0.0823,0.0978,0.0981,0.1037,0.1066,0.1116,0,0,0,0.0653,0.0736,0.0679,0.0769,0.0709,0.0791,0.0755,0.0815,0.0851,0.0821,0.0979,0.0982,0.1036,0.1062,0.1112,0.1158,0.118,0,0,0.0765,0.075,0.0801,0.0752,0.0847,0.0781,0.0884,0.0905,0.0896,0.0954,0.0957,0.1042,0.1065,0.1115,0.1301,0.1318,0,0,0,0.0841,0.0878,0.0901,0.0934,0.0951,0.0966,0.0969,0.0975,0.1024,0.0929,0.1075,0.1089,0.1117,0.1138,0.1153,0.1174,0.0993,0.0993,0.0993,0.1019,0.1001,0.1084,0.1072,0.1106,0.1105,0.113,0.1139,0.1114,0.1148,0.1164,0.1279,0.1305,0.1316,0.1339,0.119,0.119,0.1191,0.1191,0.1178,0.1226,0.1187,0.1253,0.1233,0.1288,0.129,0.127,0.1317,0.1267,0.1291,0.1234,0.1335,0.1354,0.1195,0.1195,0.1194,0.1194,0.1193,0.129,0.1309,0.1315,0.1359,0.1395,0.138,0.1426,0.1408,0.1391,0.1415,0.1427,0.1426,0.1419,0.1422,0.1423,0.1423,0.1423,0.1424,0.1424,0.1402,0.1406,0.1447,0.1469,0.1485,0.1505,0.1504,0.152,0.1533,0.1515,0.1515,0.1483,0.135,0.1314,0.143,0.1429,0.1428,0.1428,0.1427,0.1564,0.1523,0.1586,0.1603,0.1624,0.1658,0.1634,0.1667,0.1678,0.17,0.1663,0.1569,0.1552,0.154,0.151,0.1669,0.1669,0.1669,0.167,0.1655,0.1644,0.1701,0.1728,0.1753,0.1736,0.1804,0.1803,0.1796,0.1801,0.1776,0.1736,0.1725,0.1714,0.1699,0.167,0.1867,0.1867,0.1867,0.1751,0.1741,0.1804,0.1795,0.1809,0.1822,0.1884,0.1916,0.19,0.1875,0.1803,0.1795,0.173,0.1711,0.1682,0.1659,0.1607,0,0]}]]